Temperature
-0 -0 -0 0 0 1 1 1 1 2 2 2 2 3 3 3 3 4 4 4 4 4 4 5 5 5 5 5 4 4 4 4 4 4 4 4 4 4 5 5 5 5 5
-1 -1 -0 -0 -0 0 0 1 1 1 1 1 2 2 2 2 3 3 3 3 3 4 4 4 4 4 4 4 4 4 4 4 4 4 4 4 4 4 4 4 4 4 4
-2 -1 -1 -1 -1 -0 -0 0 0 1 1 1 1 1 1 2 2 2 2 2 3 3 3 3 4 4 4 4 4 4 4 4 3 3 3 3 3 3 3 3 3 4 4
-2 -2 -2 -1 -1 -1 -1 -0 -0 0 0 0 0 1 1 1 1 1 2 2 2 2 3 3 3 3 3 3 3 3 3 3 3 3 3 3 3 3 3 3 3 3 3
-3 -3 -2 -2 -2 -1 -1 -1 -1 -1 -1 -0 -0 0 1 1 1 1 1 1 2 2 2 2 2 3 3 3 3 3 3 2 2 2 2 2 2 2 2 2 2 2 2
-4 -3 -3 -3 -2 -2 -2 -2 -2 -1 -1 -1 -1 -0 0 0 0 0 1 1 1 1 2 2 2 2 2 2 2 2 2 2 2 2 2 2 2 2 2 1 1 1 1
-4 -4 -4 -3 -3 -3 -2 -2 -2 -2 -2 -1 -1 -1 -1 -0 -0 -0 0 0 1 1 1 1 1 1 1 1 1 1 1 1 2 1 1 1 1 1 1 1 1 1 1
-4 -4 -4 -4 -3 -3 -3 -3 -3 -3 -3 -2 -2 -2 -1 -1 -1 -1 -1 -0 -0 0 0 1 1 1 1 1 1 1 1 1 1 1 1 1 1 1 1 1 0 0 0
-5 -5 -5 -4 -4 -4 -4 -3 -3 -3 -3 -3 -3 -2 -2 -2 -2 -1 -1 -1 -1 -1 -0 -0 -0 -0 0 0 0 0 0 0 0 0 0 0 -0 -0 -0 -0 -0 -0 -1
-5 -5 -5 -5 -5 -4 -4 -4 -4 -4 -3 -3 -3 -3 -3 -2 -2 -2 -2 -2 -1 -1 -1 -1 -1 -1 -1 -1 -1 -0 -0 -0 -0 -0 -0 -1 -1 -1 -1 -1 -1 -1 -1
-6 -5 -5 -5 -5 -5 -5 -4 -4 -4 -4 -4 -4 -3 -3 -3 -3 -2 -2 -2 -2 -2 -2 -2 -2 -1 -1 -1 -1 -1 -1 -1 -1 -1 -1 -1 -1 -1 -1 -1 -1 -1 -1
-6 -6 -6 -5 -5 -5 -5 -5 -5 -5 -5 -4 -4 -4 -4 -4 -3 -3 -3 -3 -3 -3 -3 -3 -2 -2 -2 -2 -2 -2 -2 -2 -2 -2 -2 -2 -2 -2 -2 -2 -2 -2 -2
-6 -6 -6 -6 -6 -6 -6 -6 -5 -5 -5 -5 -5 -5 -5 -4 -4 -4 -4 -4 -3 -3 -3 -3 -3 -3 -3 -3 -3 -2 -2 -2 -2 -2 -2 -2 -2 -2 -2 -2 -2 -3 -3
-7 -7 -7 -7 -6 -6 -6 -6 -6 -6 -6 -6 -6 -6 -5 -5 -5 -5 -4 -4 -4 -4 -4 -4 -4 -4 -4 -3 -3 -3 -3 -3 -3 -3 -3 -3 -3 -3 -3 -3 -3 -3 -3
-8 -7 -7 -7 -7 -7 -7 -7 -7 -6 -7 -6 -6 -6 -6 -6 -5 -5 -5 -5 -5 -4 -4 -4 -4 -4 -4 -4 -4 -4 -4 -4 -4 -4 -4 -4 -4 -4 -4 -4 -4 -4 -4
-8 -8 -8 -8 -8 -8 -8 -7 -7 -7 -7 -7 -7 -7 -6 -6 -6 -6 -5 -5 -5 -5 -5 -5 -5 -5 -5 -5 -5 -5 -5 -5 -5 -5 -5 -5 -5 -5 -5 -5 -5 -5 -5
-9 -9 -9 -9 -9 -8 -8 -8 -8 -7 -7 -7 -7 -7 -7 -7 -6 -6 -6 -6 -6 -6 -6 -6 -6 -6 -5 -6 -6 -6 -6 -6 -6 -6 -6 -6 -6 -6 -6 -6 -6 -5 -5
-10 -9 -9 -9 -9 -9 -9 -8 -8 -8 -8 -8 -7 -7 -7 -7 -7 -7 -7 -6 -6 -6 -6 -6 -6 -6 -6 -6 -6 -6 -6 -6 -6 -6 -6 -6 -6 -6 -6 -6 -6 -6 -6
-10 -10 -10 -10 -10 -9 -9 -9 -9 -9 -8 -8 -8 -8 -8 -8 -7 -7 -7 -7 -7 -7 -7 -7 -7 -7 -7 -7 -7 -7 -7 -7 -7 -7 -7 -7 -7 -7 -7 -7 -7 -7 -7
-10 -10 -10 -10 -10 -10 -10 -10 -9 -9 -9 -9 -9 -8 -8 -8 -8 -8 -8 -8 -8 -8 -7 -7 -7 -7 -7 -7 -7 -8 -8 -8 -8 -8 -8 -8 -8 -8 -8 -8 -8 -8 -8
-11 -11 -11 -11 -11 -10 -10 -10 -10 -10 -10 -10 -9 -9 -9 -9 -9 -9 -8 -8 -8 -8 -8 -8 -8 -8 -8 -8 -8 -8 -8 -8 -8 -8 -8 -8 -8 -8 -8 -8 -8 -8 -8
-11 -11 -11 -11 -11 -11 -11 -11 -11 -10 -10 -10 -10 -10 -10 -10 -9 -9 -9 -9 -9 -9 -9 -9 -9 -8 -8 -8 -8 -8 -8 -9 -9 -9 -9 -9 -9 -9 -9 -9 -9 -9 -9
-12 -12 -12 -11 -11 -11 -11 -11 -11 -11 -11 -10 -10 -10 -10 -10 -10 -10 -10 -10 -10 -9 -9 -9 -9 -9 -9 -9 -9 -9 -9 -9 -9 -9 -9 -9 -9 -9 -9 -9 -9 -9 -9
-12 -12 -12 -12 -12 -12 -12 -12 -11 -11 -11 -11 -11 -11 -11 -11 -10 -10 -10 -10 -10 -10 -10 -10 -10 -10 -9 -9 -9 -9 -9 -9 -9 -9 -9 -9 -9 -9 -9 -9 -9 -9 -10
-12 -12 -12 -12 -12 -12 -12 -12 -12 -12 -11 -11 -11 -11 -11 -11 -11 -11 -11 -11 -10 -10 -10 -10 -10 -10 -10 -10 -10 -10 -10 -10 -10 -10 -10 -10 -10 -10 -10 -10 -10 -10 -10
-13 -13 -13 -13 -13 -12 -12 -12 -12 -12 -12 -12 -12 -12 -11 -11 -11 -11 -11 -11 -11 -11 -11 -10 -10 -10 -10 -10 -10 -10 -10 -10 -10 -10 -10 -10 -10 -10 -10 -10 -10 -10 -10
Wind_Speed
9 8 8 7 6 5 5 5 4 4 4 4 3 3 3 3 2 2 3 3 3 3 3 4 5 4 4 4 3 3 3 3 4 2 1 1 1 1 2 2 2 2 2
8 8 8 8 6 6 5 5 4 4 4 4 3 3 3 2 2 3 3 3 3 4 3 4 4 4 5 4 4 4 4 4 4 3 1 1 1 1 1 1 2 2 2
8 8 8 8 7 7 6 6 5 4 3 3 2 2 3 2 2 2 3 3 3 3 4 4 4 5 5 4 4 5 4 3 3 3 2 1 1 1 0 1 1 2 2
9 8 8 8 7 7 7 6 5 4 3 3 2 3 3 3 2 2 3 3 3 3 3 3 4 5 6 6 5 5 5 4 4 4 3 2 1 1 1 1 1 1 2
8 8 8 8 7 7 6 6 5 4 4 3 2 2 2 2 2 2 2 3 3 2 2 2 3 4 5 5 5 6 6 5 4 4 3 2 1 2 2 1 1 1 2
8 8 8 8 8 7 6 6 5 4 4 3 2 2 2 1 1 2 2 2 2 3 2 2 2 3 3 3 4 5 6 6 6 4 3 3 3 2 1 1 1 1 1
7 8 8 8 8 7 6 5 5 5 4 3 3 2 2 2 2 1 1 1 2 2 3 3 2 2 2 3 3 3 3 4 6 6 5 5 4 4 3 2 2 2 2
7 7 8 8 8 8 7 5 5 4 4 3 3 3 2 2 2 1 1 1 1 2 2 3 3 3 3 4 4 3 2 3 4 4 5 4 4 4 4 4 3 1 1
7 7 8 7 8 8 7 6 5 4 4 4 3 3 2 2 2 2 1 0 1 1 1 2 2 3 3 4 4 4 3 2 1 3 3 2 3 3 3 2 2 1 2
8 8 7 7 7 7 7 6 5 4 4 4 4 4 3 3 3 2 1 1 1 1 1 1 1 2 3 3 4 5 3 2 2 2 2 2 2 2 2 2 3 3 1
8 7 7 7 7 6 6 5 5 5 4 4 5 5 4 4 5 4 2 1 1 1 1 1 1 2 3 3 2 3 3 2 3 3 2 2 2 1 1 1 0 2 2
7 7 7 7 6 6 5 5 4 4 4 4 4 5 4 4 5 4 4 3 2 1 1 1 2 3 3 2 2 3 4 3 2 2 2 1 1 1 1 1 2 1 1
7 7 6 7 6 6 5 5 4 3 3 4 3 4 4 4 4 6 5 4 3 2 2 3 3 4 4 3 4 4 3 2 2 2 2 1 1 1 1 1 2 2 3
7 6 6 5 6 5 5 4 4 3 3 3 3 3 4 4 3 3 3 2 3 2 2 3 5 5 5 5 4 3 2 2 2 2 1 1 1 1 1 1 0 0 0
6 6 5 5 5 5 5 4 4 3 3 4 3 2 3 4 4 5 3 2 1 1 2 2 2 3 3 3 3 3 2 2 2 2 1 1 1 1 1 0 0 0 1
6 5 4 4 4 4 4 5 7 6 7 8 7 6 4 5 6 5 4 3 3 2 2 2 2 2 2 2 2 2 2 2 2 2 1 1 1 1 1 1 1 0 1
5 5 4 4 4 4 4 4 5 6 7 8 8 8 7 7 6 6 4 4 3 3 2 2 2 2 1 1 1 1 1 2 2 1 1 1 1 1 1 1 1 1 1
6 6 5 4 4 4 4 4 4 4 5 5 7 8 8 8 7 6 5 4 3 3 2 2 1 1 1 1 1 1 1 1 1 1 1 1 0 0 0 1 1 1 2
6 5 5 4 4 4 4 4 4 4 4 4 4 6 8 7 7 7 5 3 2 2 1 1 1 1 1 1 1 1 0 0 0 0 0 0 0 0 1 1 2 2 2
5 8 7 4 4 4 4 4 3 4 4 4 4 4 4 4 4 4 4 3 2 1 1 1 1 1 0 0 0 0 0 0 0 0 1 1 1 1 2 2 2 2 2
5 5 7 5 4 4 4 4 3 3 3 4 4 5 5 3 3 3 3 2 2 2 2 1 1 1 1 0 0 1 1 1 1 1 1 1 1 2 2 2 2 2 2
4 4 4 4 4 4 4 3 3 3 3 3 4 4 6 3 2 2 2 3 2 2 2 2 2 1 1 1 1 1 2 2 2 2 2 2 2 2 2 2 2 3 3
4 4 4 4 4 5 5 4 3 3 3 3 4 4 3 3 2 2 2 3 3 2 2 2 1 2 2 2 2 2 2 3 3 3 3 3 3 3 3 3 3 3 4
4 3 3 4 4 3 3 4 4 4 3 3 3 3 3 3 3 3 3 3 2 2 2 2 2 2 3 3 3 4 4 5 5 5 5 4 4 4 3 4 4 4 4
3 3 3 3 3 3 3 4 4 4 4 4 3 3 3 3 3 3 3 3 3 3 3 3 3 3 4 5 5 6 7 7 6 5 5 5 4 5 4 5 4 4 5
3 3 3 3 3 3 3 3 4 4 4 4 4 3 4 3 3 3 3 3 3 3 3 4 4 5 6 6 7 8 8 8 7 7 5 4 4 4 4 4 5 5 5
Wind_Direction
334 329 325 319 316 311 305 301 301 298 291 280 272 265 249 240 233 231 238 209 201 207 207 201 207 197 193 190 186 187 187 176 206 233 223 245 240 282 316 308 295 286 280
330 327 328 325 321 316 310 308 304 297 292 284 280 266 252 243 230 222 233 214 202 206 211 205 210 199 195 191 188 190 192 186 183 204 227 229 235 256 286 302 308 295 291
329 330 332 333 329 321 314 311 306 300 301 302 295 271 254 242 235 235 232 213 208 211 212 212 210 198 200 195 189 190 193 187 173 181 205 208 228 232 312 322 330 334 326
331 331 331 330 327 322 321 318 316 312 306 296 288 275 256 239 227 229 229 204 207 212 215 214 209 203 203 195 192 189 182 178 172 175 187 193 202 206 179 216 314 350 341
329 331 328 327 326 325 327 324 322 321 315 300 288 284 277 247 222 214 216 203 203 209 209 215 214 207 203 199 194 185 179 179 178 183 191 197 198 191 207 207 255 320 338
325 328 330 331 331 330 328 327 328 328 328 319 300 292 285 274 258 237 233 203 195 197 196 200 207 196 188 190 196 190 185 185 187 193 205 207 212 215 205 200 220 264 282
325 327 331 333 332 329 328 332 332 331 332 329 317 306 290 272 270 263 285 235 195 200 193 186 188 185 178 158 156 168 189 197 195 193 197 211 209 206 198 215 237 252 257
325 328 331 334 329 329 334 332 329 335 336 335 332 321 303 289 285 278 300 256 187 197 186 174 176 178 181 164 152 160 176 197 198 190 190 200 209 208 205 210 209 213 287
326 327 329 329 327 329 332 331 329 337 342 343 339 347 337 312 307 303 314 140 136 161 163 162 158 155 167 162 157 160 165 169 145 156 161 162 177 191 186 156 161 182 264
320 321 323 324 324 324 325 327 334 339 342 346 353 358 356 348 328 316 318 117 100 87 76 98 152 147 156 161 163 161 171 179 147 129 113 97 97 120 143 178 193 198 234
318 321 323 325 324 324 328 335 343 347 354 2 2 2 6 5 3 1 9 54 109 102 79 69 81 102 131 140 156 162 172 162 149 142 141 135 116 103 78 55 172 201 212
321 322 323 327 329 332 336 339 347 354 0 5 7 4 5 2 5 11 18 15 42 86 84 78 87 81 81 102 118 134 127 113 123 129 133 140 139 135 87 53 61 68 157
324 325 327 331 333 335 335 338 350 358 357 353 358 359 356 358 0 7 16 23 35 51 82 88 80 74 62 63 74 89 103 115 123 130 138 147 163 169 124 75 55 65 62
323 326 330 334 335 340 337 338 343 347 345 344 350 346 344 347 350 351 356 8 31 47 67 78 72 67 60 57 57 56 56 91 119 131 132 122 79 116 139 152 183 129 33
324 327 333 333 331 333 336 338 336 334 334 339 331 329 335 334 338 344 349 2 23 63 73 63 63 68 67 62 58 55 58 64 66 76 98 93 73 55 25 33 134 304 234
326 333 334 332 330 333 334 339 347 347 351 355 354 352 341 341 344 352 2 18 26 51 65 77 72 71 73 67 65 53 48 52 54 65 74 79 70 49 9 355 356 260 236
324 326 327 330 330 331 331 333 335 345 356 1 359 357 357 354 356 359 10 31 38 51 62 71 69 69 66 67 65 56 38 42 51 56 57 56 48 33 3 346 331 320 292
328 326 327 323 323 323 324 326 326 329 338 345 351 355 357 0 3 5 12 30 33 37 53 71 69 62 56 54 53 45 45 46 51 54 62 61 66 107 312 304 295 272 267
329 328 325 325 325 324 325 328 329 331 333 334 340 347 354 358 3 9 17 27 32 27 29 36 42 50 51 46 43 36 39 23 33 43 31 287 251 218 243 255 263 280 287
327 329 333 329 328 328 329 331 332 332 334 335 336 337 341 351 359 1 9 15 17 5 358 354 354 1 24 29 327 247 249 277 285 278 268 268 265 246 243 251 259 267 276
321 324 332 332 325 322 324 325 322 322 325 327 329 332 345 354 355 356 357 358 353 343 335 330 324 319 320 298 262 239 236 252 253 251 256 263 265 265 263 257 257 262 269
318 319 324 323 322 321 324 328 327 325 325 325 327 333 346 358 354 350 345 342 345 342 333 326 311 310 296 284 262 246 245 247 244 237 240 247 251 254 255 254 255 255 253
315 319 324 326 325 327 335 336 331 325 323 324 328 335 342 347 342 338 336 336 340 342 327 316 321 318 297 282 264 245 245 247 247 240 234 243 245 244 244 246 249 252 254
318 320 324 326 328 328 328 329 329 327 325 324 328 331 334 336 335 336 335 333 336 332 324 320 309 308 307 304 296 284 274 266 256 244 233 233 240 245 243 245 249 251 251
322 323 322 318 317 319 322 323 323 325 327 328 329 331 334 335 332 331 333 336 333 331 327 320 313 311 312 308 302 298 292 284 273 259 243 233 236 238 240 242 244 249 250
320 317 314 313 313 315 316 315 317 320 323 326 328 330 330 329 328 330 331 329 328 327 324 320 317 315 312 311 307 304 303 299 288 273 259 240 238 240 240 243 242 243 247
Height
1482 1480 1478 1476 1475 1473 1472 1471 1470 1469 1469 1469 1470 1470 1471 1472 1473 1475 1476 1477 1479 1481 1483 1484 1486 1489 1491 1493 1495 1497 1499 1501 1502 1504 1506 1508 1509 1510 1511 1511 1512 1512 1513
1480 1478 1475 1473 1472 1470 1468 1467 1467 1466 1466 1465 1466 1466 1467 1468 1469 1470 1471 1472 1474 1476 1478 1479 1481 1483 1485 1488 1490 1492 1494 1496 1498 1499 1501 1503 1504 1506 1506 1507 1508 1508 1508
1478 1475 1473 1471 1469 1467 1465 1464 1463 1462 1461 1461 1461 1462 1462 1463 1464 1466 1467 1468 1469 1471 1473 1474 1476 1478 1480 1482 1484 1487 1489 1491 1493 1494 1496 1498 1500 1502 1502 1503 1503 1504 1504
1476 1473 1470 1468 1466 1464 1462 1461 1459 1459 1458 1457 1457 1458 1458 1459 1460 1462 1463 1463 1464 1466 1468 1469 1471 1473 1474 1477 1479 1481 1484 1486 1488 1490 1492 1493 1495 1497 1498 1498 1499 1500 1500
1474 1471 1468 1466 1464 1462 1460 1458 1457 1456 1455 1454 1454 1454 1455 1455 1456 1457 1458 1459 1460 1461 1463 1464 1466 1468 1469 1472 1474 1476 1479 1481 1483 1485 1487 1489 1490 1492 1493 1494 1495 1495 1495
1472 1469 1466 1464 1461 1459 1457 1455 1454 1452 1452 1451 1450 1450 1450 1451 1452 1453 1454 1455 1456 1457 1458 1459 1461 1463 1465 1467 1470 1472 1474 1477 1478 1480 1482 1483 1485 1487 1489 1490 1490 1490 1490
1470 1467 1464 1461 1459 1457 1455 1453 1451 1450 1449 1448 1447 1447 1447 1448 1449 1450 1451 1452 1452 1453 1454 1455 1457 1459 1461 1463 1465 1467 1470 1472 1475 1476 1477 1479 1481 1483 1484 1485 1486 1486 1486
1469 1465 1463 1460 1458 1455 1453 1451 1450 1448 1447 1445 1445 1445 1445 1445 1446 1447 1447 1448 1449 1449 1450 1451 1453 1455 1457 1458 1460 1462 1465 1467 1470 1472 1474 1475 1477 1479 1480 1481 1482 1482 1483
1467 1464 1461 1459 1456 1454 1452 1450 1449 1447 1445 1444 1444 1443 1442 1443 1444 1444 1444 1445 1445 1446 1446 1448 1450 1451 1453 1455 1457 1458 1460 1463 1466 1468 1470 1471 1473 1475 1476 1477 1477 1478 1478
1465 1462 1460 1458 1455 1453 1451 1449 1448 1446 1445 1444 1443 1442 1441 1441 1442 1442 1442 1443 1442 1443 1443 1445 1447 1448 1450 1451 1453 1455 1456 1458 1461 1463 1465 1467 1468 1470 1471 1473 1473 1474 1473
1463 1461 1459 1456 1454 1452 1450 1448 1447 1446 1444 1443 1442 1441 1441 1440 1440 1440 1440 1440 1441 1441 1441 1442 1444 1445 1447 1448 1450 1452 1453 1455 1457 1459 1461 1462 1464 1466 1467 1468 1469 1470 1470
1461 1459 1457 1455 1453 1451 1449 1448 1446 1445 1443 1442 1441 1440 1439 1439 1439 1439 1439 1439 1439 1439 1439 1440 1441 1443 1444 1446 1447 1448 1450 1452 1453 1455 1457 1458 1460 1461 1463 1464 1465 1466 1466
1459 1457 1455 1453 1452 1450 1448 1446 1445 1444 1443 1442 1441 1440 1439 1439 1438 1438 1438 1438 1438 1438 1439 1439 1440 1441 1442 1443 1444 1446 1447 1449 1450 1452 1453 1454 1456 1457 1459 1460 1461 1461 1462
1457 1455 1453 1452 1450 1449 1447 1446 1445 1444 1443 1441 1440 1440 1439 1438 1437 1437 1437 1437 1437 1437 1438 1438 1439 1440 1441 1441 1442 1443 1445 1446 1447 1448 1449 1451 1452 1453 1454 1455 1456 1457 1458
1455 1453 1452 1450 1449 1448 1446 1445 1444 1443 1443 1442 1441 1440 1438 1437 1437 1437 1436 1436 1436 1436 1436 1437 1437 1438 1439 1440 1441 1441 1443 1444 1445 1446 1447 1448 1449 1450 1451 1452 1452 1453 1453
1454 1452 1450 1449 1448 1447 1445 1444 1443 1443 1442 1441 1440 1439 1438 1438 1437 1436 1435 1435 1435 1435 1435 1435 1436 1437 1437 1438 1439 1440 1441 1441 1442 1443 1444 1445 1446 1446 1447 1449 1449 1450 1450
1452 1450 1449 1448 1447 1445 1444 1443 1441 1441 1440 1439 1438 1437 1437 1436 1435 1435 1434 1434 1434 1434 1434 1434 1435 1436 1436 1437 1438 1438 1439 1439 1440 1441 1442 1442 1443 1444 1444 1445 1446 1446 1446
1451 1449 1448 1447 1446 1444 1443 1442 1441 1440 1438 1437 1437 1436 1435 1434 1433 1433 1433 1433 1433 1433 1433 1433 1434 1434 1435 1435 1436 1436 1437 1438 1438 1439 1440 1440 1441 1441 1441 1442 1442 1443 1443
1450 1448 1447 1446 1444 1443 1442 1441 1440 1439 1438 1436 1435 1434 1434 1433 1432 1432 1432 1431 1431 1431 1432 1432 1432 1433 1433 1434 1434 1434 1435 1435 1436 1436 1437 1437 1438 1438 1438 1439 1439 1439 1440
1448 1447 1446 1444 1443 1442 1441 1440 1439 1437 1436 1435 1434 1433 1432 1431 1430 1430 1430 1430 1430 1430 1430 1431 1431 1431 1431 1432 1432 1432 1433 1433 1433 1434 1434 1434 1435 1435 1435 1435 1436 1436 1436
1447 1445 1444 1443 1442 1441 1440 1439 1437 1436 1435 1434 1433 1433 1432 1431 1430 1429 1429 1429 1429 1428 1429 1429 1429 1429 1429 1429 1430 1430 1430 1430 1430 1431 1431 1431 1432 1432 1432 1432 1433 1432 1432
1445 1444 1442 1441 1440 1439 1438 1437 1436 1435 1434 1433 1432 1431 1431 1430 1429 1428 1428 1427 1427 1427 1427 1427 1427 1427 1427 1427 1427 1427 1427 1427 1427 1428 1428 1428 1429 1429 1429 1429 1429 1429 1429
1444 1442 1441 1440 1438 1437 1436 1435 1434 1433 1432 1431 1430 1429 1429 1428 1428 1427 1426 1426 1425 1425 1425 1425 1424 1424 1424 1424 1424 1424 1424 1424 1424 1425 1425 1425 1425 1425 1425 1425 1425 1425 1425
1442 1441 1439 1438 1437 1436 1435 1433 1432 1431 1430 1429 1428 1428 1427 1427 1426 1425 1425 1424 1424 1423 1423 1422 1422 1422 1422 1421 1421 1421 1421 1421 1421 1421 1421 1421 1421 1421 1421 1421 1421 1421 1421
1440 1439 1438 1436 1435 1434 1433 1431 1430 1429 1428 1427 1426 1426 1425 1425 1424 1424 1423 1422 1422 1421 1421 1420 1419 1419 1419 1419 1418 1418 1418 1418 1417 1417 1417 1417 1417 1417 1417 1417 1417 1417 1417
1438 1437 1435 1434 1433 1432 1431 1429 1428 1427 1426 1425 1425 1424 1423 1423 1422 1422 1421 1420 1420 1419 1418 1418 1417 1417 1416 1416 1415 1415 1414 1414 1414 1414 1413 1413 1413 1413 1412 1412 1412 1412 1412